Location: Augustenthal
(51.7167°N, 10.2833°E)
Time: 20:53:54
(UTC+00:00)

Meteor 2-4 Rocket - Visible Passes

Search period start: 19 September 2021 00:00
Search period end: 29 September 2021 00:00
Orbit: 799 x 909 km, 81.2° (Epoch: 19 September)

Date Brightness Start Highest point End Pass type
(mag) Time Alt. Az. Time Alt. Az. Time Alt. Az.
24 Sep 5.2 04:28:16 10° SSE 04:33:33 42° E 04:38:41 10° NNE visible
25 Sep 5.3 04:17:16 10° SSE 04:22:28 40° E 04:27:34 10° NNE visible
26 Sep 5.4 04:06:17 10° SSE 04:11:24 38° E 04:16:24 10° NNE visible
27 Sep 5.4 03:55:18 10° SSE 04:00:20 35° E 04:05:16 10° NNE visible
28 Sep 5.5 03:44:19 10° SSE 03:49:16 33° E 03:54:07 10° NNE visible
